STARLINK-5241 (54204 NORAD) Tracking and Keplerian Element Data

This shows tracking and keplerian element data for the satellite.

Feedback or suggestion? Click here.




ElementValue
Catalog54204
NameSTARLINK-5241
Epoch Orbit407
Epoch Day325.25001157
Epoch Year2022
RAAN24.0702
Inclination53.2179
Eccentricity0.0002872
Argument of Perigee12.1803
Mean Anonmoly27.7749
Mean Motion15.73167296
Decay Rate0.00031844
L11 54204U 22141AZ 22325.25001157 .00031844 00000+0 23074-3 0 9998
L22 54204 53.2179 24.0702 0002872 12.1803 27.7749 15.73167296 4077



Live tracking and technical data element details for STARLINK-5241 (NORAD 54204). STARLINK-5241 can be tracked NOW for your location showing map with azimuth and elevation plus other details from your city location.







IsCatalogInMostPopularTable: catalog: 54204, numindb: 11
Update: records affected: 1



GetName: 54204 STARLINK-5241

Hit Count: updated at: Sun, 04 Dec 2022 21:37:38 GMT